Rota, Spain

12:55 AM CET on December 16, 2017 (GMT +0100)
Rota Navy

Weather History for LERT - February, 2014

Change the Weather History Date:

Tuesday, February 11, 2014

  Actual Average Record
Temperature  
Mean Temperature 50 °F -  
Max Temperature 59 °F 59 °F 66 °F (1997)
Min Temperature 42 °F 45 °F 33 °F (2012)
Degree Days  
Heating Degree Days 14    
Moisture  
Dew Point 46 °F    
Average Humidity 79    
Maximum Humidity 100    
Minimum Humidity 62    
Precipitation  
Precipitation 0.00 in - - ()
Sea Level Pressure  
Sea Level Pressure 30.21 in    
Wind  
Wind Speed 9 mph ()    
Max Wind Speed 23 mph    
Max Gust Speed 33 mph    
Visibility 4.7 miles    
Events Rain    
Averages and records for this station are not official NWS values.
T = Trace of Precipitation, MM = Missing Value Source: Averaged Metar Reports

Daily Weather History Graph

Daily Weather History Graph

Search for Another Location

Airport or City:

Trip Planner

Search our weather history database for the weather conditions in past years. The results will help you decide how hot, cold, wet, or windy it might be!

Date:

Astronomy

Feb. 11, 2014 Rise Set
Actual Time 8:18 AM CET 7:01 PM CET
Civil Twilight 7:51 AM CET 7:28 PM CET
Nautical Twilight 7:21 AM CET 7:58 PM CET
Astronomical Twilight 6:50 AM CET 8:28 PM CET
Moon 4:12 PM CET (2/11) 5:42 AM CET (2/11)
Length of Visible Light 11h 36m
Length of Day
10h 43m
Waxing Gibbous, 89% of the Moon is Illuminated
Feb 11
Waxing Gibbous
Feb 15
Full
Feb 22
Last Quarter
Mar 1
New
Mar 8
First Quarter

Hourly Weather History & Observations

Time (CET) Temp. Windchill Dew Point Humidity Pressure Visibility Wind Dir Wind Speed Gust Speed Precip Events Conditions
12:00 AM 51.8 °F - 39.2 °F 62% 30.33 in - NW 10.4 mph - N/A   Clear
1:00 AM 51.8 °F - 41.0 °F 67% 30.33 in - Variable 2.3 mph - N/A   Clear
2:00 AM 48.2 °F - 41.0 °F 76% 30.33 in - Variable 2.3 mph - N/A   Clear
3:00 AM 46.4 °F - 39.2 °F 76% 30.30 in - Variable 2.3 mph - N/A   Clear
4:00 AM 44.6 °F - 37.4 °F 76% 30.30 in - Calm Calm - N/A   Clear
5:00 AM 46.4 °F - 42.8 °F 87% 30.27 in - Variable 2.3 mph - N/A   Clear
6:00 AM 46.4 °F 43.5 °F 41.0 °F 81% 30.27 in - ESE 5.8 mph - N/A   Clear
7:00 AM 42.8 °F 41.1 °F 39.2 °F 87% 30.27 in 6.2 mi ESE 3.5 mph - N/A   Partly Cloudy
8:00 AM 44.6 °F 42.2 °F 39.2 °F 81% 30.24 in 6.2 mi East 4.6 mph - N/A   Scattered Clouds
9:00 AM 48.2 °F - 42.8 °F 82% 30.27 in 6.2 mi SE 8.1 mph - N/A   Scattered Clouds
10:00 AM 55.4 °F - 44.6 °F 67% 30.24 in 6.2 mi SW 10.4 mph - N/A Rain Light Rain
11:00 AM 57.2 °F - 44.6 °F 63% 30.24 in 6.2 mi SW 15.0 mph - N/A   Mostly Cloudy
12:00 PM 57.2 °F - 44.6 °F 63% 30.24 in 6.2 mi SW 16.1 mph - N/A   Overcast
1:00 PM 57.2 °F - 44.6 °F 63% 30.21 in 6.2 mi SW 17.3 mph - N/A   Overcast
2:00 PM 57.2 °F - 46.4 °F 67% 30.18 in 6.2 mi SW 18.4 mph 29.9 mph N/A   Overcast
3:00 PM 57.2 °F - 48.2 °F 72% 30.15 in 5.0 mi SW 20.7 mph - N/A   Drizzle
4:00 PM 57.2 °F - 48.2 °F 72% 30.12 in 4.3 mi SW 20.7 mph 33.4 mph N/A   Drizzle
5:00 PM 55.4 °F - 51.8 °F 88% 30.12 in 2.5 mi SW 23.0 mph - N/A   Drizzle
6:00 PM 55.4 °F - 53.6 °F 94% 30.12 in 2.5 mi SW 21.9 mph - N/A   Drizzle
7:00 PM 57.2 °F - 53.6 °F 88% 30.09 in 1.9 mi SW 16.1 mph 27.6 mph N/A   Drizzle
8:00 PM 57.2 °F - 55.4 °F 94% 30.12 in 3.1 mi SW 20.7 mph - N/A   Drizzle
9:00 PM 57.2 °F - 57.2 °F 100% 30.09 in 1.9 mi WSW 17.3 mph 29.9 mph N/A   Drizzle
10:00 PM 59.0 °F - 57.2 °F 94% 30.09 in 3.7 mi SW 20.7 mph - N/A   Overcast
11:00 PM 59.0 °F - 57.2 °F 94% 30.12 in 5.0 mi WSW 21.9 mph - N/A   Drizzle